| time (UTC) | temp C | wind direction | speed KPH | gust KPH | rain 1hr cm | rain 24hr cm | rain mn cm | humidity % | barometer mb |
| 20260903213251 | 24 | 98 | 6.4 | 8.0 | 0.00 | 0.00 | 0.00 | 76 | 1008.7 |
| 20260903212741 | 25 | 84 | 6.4 | 11.3 | 0.00 | 0.00 | 0.00 | 76 | 1008.8 |
| 20260903212238 | 24 | 104 | 4.8 | 8.0 | 0.00 | 0.00 | 0.00 | 77 | 1008.7 |
| 20260903211736 | 24 | 88 | 6.4 | 8.0 | 0.00 | 0.00 | 0.00 | 77 | 1008.6 |
| 20260903211234 | 23 | 60 | 4.8 | 4.8 | 0.00 | 0.00 | 0.00 | 78 | 1008.6 |
| 20260903210729 | 24 | 31 | 4.8 | 8.0 | 0.00 | 0.00 | 0.00 | 77 | 1008.7 |
| 20260903210225 | 23 | 50 | 6.4 | 9.7 | 0.00 | 0.00 | 0.00 | 79 | 1008.5 |
| 20260903205718 | 23 | 28 | 9.7 | 11.3 | 0.00 | 0.00 | 0.00 | 79 | 1008.6 |
| 20260903205217 | 23 | 62 | 6.4 | 9.7 | 0.00 | 0.00 | 0.00 | 80 | 1008.7 |
| 20260903204713 | 23 | 20 | 6.4 | 8.0 | 0.00 | 0.00 | 0.00 | 79 | 1008.8 |
| 20260903204210 | 23 | 77 | 6.4 | 11.3 | 0.00 | 0.00 | 0.00 | 79 | 1008.7 |
| 20260903203704 | 22 | 80 | 4.8 | 8.0 | 0.00 | 0.00 | 0.00 | 81 | 1008.7 |
| 20260903203200 | 22 | 48 | 9.7 | 9.7 | 0.00 | 0.00 | 0.00 | 82 | 1008.7 |
| 20260903202654 | 22 | 38 | 8.0 | 11.3 | 0.00 | 0.00 | 0.00 | 82 | 1009.0 |
| 20260903202150 | 22 | 58 | 4.8 | 8.0 | 0.00 | 0.00 | 0.00 | 82 | 1009.3 |
| 20260903201643 | 22 | 28 | 4.8 | 4.8 | 0.00 | 0.00 | 0.00 | 82 | 1008.8 |
| 20260903201138 | 22 | 44 | 8.0 | 11.3 | 0.00 | 0.00 | 0.00 | 83 | 1008.7 |
| 20260903200633 | 22 | 27 | 6.4 | 9.7 | 0.00 | 0.00 | 0.00 | 84 | 1008.7 |
| 20260903200129 | 21 | 48 | 6.4 | 9.7 | 0.00 | 0.00 | 0.00 | 83 | 1008.6 |
| 20260903195624 | 21 | 28 | 8.0 | 9.7 | 0.00 | 0.00 | 0.00 | 84 | 1008.8 |
| 20260903195120 | 21 | 46 | 4.8 | 8.0 | 0.00 | 0.00 | 0.00 | 84 | 1008.5 |
| 20260903194614 | 21 | 74 | 3.2 | 4.8 | 0.00 | 0.00 | 0.00 | 84 | 1008.3 |
| 20260903194114 | 21 | 31 | 8.0 | 9.7 | 0.00 | 0.00 | 0.00 | 84 | 1008.1 |
| 20260903193611 | 21 | 48 | 8.0 | 12.9 | 0.00 | 0.00 | 0.00 | 84 | 1008.3 |
| 20260903193106 | 21 | 40 | 4.8 | 9.7 | 0.00 | 0.00 | 0.00 | 85 | 1008.7 |
| 20260903192603 | 21 | 32 | 8.0 | 12.9 | 0.00 | 0.00 | 0.00 | 85 | 1008.4 |
| 20260903192103 | 21 | 30 | 8.0 | 9.7 | 0.00 | 0.00 | 0.00 | 84 | 1008.7 |
| 20260903191559 | 21 | 35 | 3.2 | 4.8 | 0.00 | 0.00 | 0.00 | 86 | 1008.6 |
| 20260903191054 | 21 | 31 | 6.4 | 8.0 | 0.00 | 0.00 | 0.00 | 86 | 1008.9 |
| 20260903190553 | 21 | 27 | 4.8 | 4.8 | 0.00 | 0.00 | 0.00 | 86 | 1008.9 |
| 20260903190053 | 21 | 326 | 6.4 | 8.0 | 0.00 | 0.00 | 0.00 | 85 | 1009.3 |
| 20260903185548 | 21 | 299 | 4.8 | 4.8 | 0.00 | 0.00 | 0.00 | 85 | 1009.0 |
| 20260903185044 | 21 | 31 | 1.6 | 3.2 | 0.00 | 0.00 | 0.00 | 86 | 1008.8 |
| 20260903184540 | 21 | 43 | 4.8 | 8.0 | 0.00 | 0.00 | 0.00 | 86 | 1008.7 |
| 20260903184035 | 21 | 26 | 3.2 | 3.2 | 0.00 | 0.00 | 0.00 | 86 | 1008.7 |
| 20260903183534 | 21 | 35 | 1.6 | 1.6 | 0.00 | 0.00 | 0.00 | 85 | 1008.7 |
| 20260903183029 | 21 | 45 | 3.2 | 3.2 | 0.00 | 0.00 | 0.00 | 86 | 1008.9 |
| 20260903182527 | 21 | 124 | 4.8 | 4.8 | 0.00 | 0.00 | 0.00 | 86 | 1008.8 |
| 20260903182024 | 21 | 42 | 4.8 | 4.8 | 0.00 | 0.00 | 0.00 | 86 | 1008.4 |
| 20260903181517 | 21 | 55 | 8.0 | 9.7 | 0.00 | 0.00 | 0.00 | 86 | 1008.2 |
| 20260903181017 | 21 | 49 | 8.0 | 9.7 | 0.00 | 0.00 | 0.00 | 87 | 1008.2 |
| 20260903180513 | 20 | 60 | 4.8 | 4.8 | 0.00 | 0.00 | 0.00 | 88 | 1008.3 |
| 20260903180007 | 20 | 52 | 4.8 | 8.0 | 0.00 | 0.00 | 0.00 | 89 | 1008.1 |
| 20260903175506 | 20 | 48 | 8.0 | 9.7 | 0.00 | 0.00 | 0.00 | 89 | 1008.2 |
| 20260903175005 | 20 | 74 | 9.7 | 11.3 | 0.00 | 0.00 | 0.00 | 90 | 1008.2 |
| 20260903174500 | 19 | 44 | 6.4 | 8.0 | 0.00 | 0.00 | 0.00 | 91 | 1008.3 |
| 20260903174000 | 18 | 32 | 8.0 | 9.7 | 0.00 | 0.00 | 0.00 | 92 | 1008.0 |
| 20260903173455 | 18 | 39 | 9.7 | 12.9 | 0.00 | 0.00 | 0.00 | 92 | 1008.1 |
| 20260903172950 | 18 | 47 | 12.9 | 16.1 | 0.00 | 0.00 | 0.00 | 93 | 1007.8 |
| 20260903172445 | 18 | 37 | 11.3 | 17.7 | 0.00 | 0.00 | 0.00 | 93 | 1007.8 |
| 20260903171941 | 18 | 47 | 12.9 | 16.1 | 0.00 | 0.00 | 0.00 | 93 | 1007.5 |
| 20260903171431 | 18 | 13 | 8.0 | 11.3 | 0.00 | 0.00 | 0.00 | 92 | 1007.8 |
| 20260903170931 | 18 | 24 | 9.7 | 12.9 | 0.00 | 0.00 | 0.00 | 91 | 1007.8 |
| 20260903170425 | 19 | 12 | 9.7 | 11.3 | 0.00 | 0.00 | 0.00 | 90 | 1007.8 |
| 20260903165924 | 20 | 22 | 6.4 | 9.7 | 0.00 | 0.00 | 0.00 | 90 | 1007.4 |
| 20260903165418 | 20 | 43 | 3.2 | 3.2 | 0.00 | 0.00 | 0.00 | 90 | 1007.5 |
| 20260903164913 | 20 | 356 | 3.2 | 3.2 | 0.00 | 0.00 | 0.00 | 90 | 1007.5 |
| 20260903164408 | 20 | 65 | 3.2 | 3.2 | 0.00 | 0.00 | 0.00 | 90 | 1007.6 |
| 20260903163908 | 20 | 33 | 3.2 | 3.2 | 0.00 | 0.00 | 0.00 | 89 | 1007.5 |
| 20260903163404 | 20 | 22 | 4.8 | 4.8 | 0.00 | 0.00 | 0.00 | 89 | 1007.5 |
| 20260903162900 | 20 | 32 | 3.2 | 3.2 | 0.00 | 0.00 | 0.00 | 89 | 1007.6 |
| 20260903162356 | 20 | 60 | 3.2 | 3.2 | 0.00 | 0.00 | 0.00 | 89 | 1007.4 |
| 20260903161852 | 20 | 43 | 4.8 | 4.8 | 0.00 | 0.00 | 0.00 | 89 | 1007.1 |
| 20260903161347 | 20 | 63 | 4.8 | 4.8 | 0.00 | 0.00 | 0.00 | 89 | 1006.8 |
| 20260903160843 | 20 | 60 | 8.0 | 9.7 | 0.00 | 0.00 | 0.00 | 89 | 1006.8 |
| 20260903160341 | 20 | 55 | 4.8 | 4.8 | 0.00 | 0.00 | 0.00 | 89 | 1006.8 |
| 20260903155840 | 20 | 51 | 4.8 | 8.0 | 0.00 | 0.00 | 0.00 | 89 | 1006.8 |
| 20260903155335 | 20 | 33 | 8.0 | 9.7 | 0.00 | 0.00 | 0.00 | 89 | 1006.6 |
| 20260903154831 | 20 | 25 | 11.3 | 12.9 | 0.00 | 0.00 | 0.00 | 89 | 1006.8 |
| 20260903154327 | 20 | 75 | 4.8 | 4.8 | 0.00 | 0.00 | 0.00 | 89 | 1006.6 |
| 20260903153822 | 20 | 59 | 6.4 | 8.0 | 0.00 | 0.00 | 0.00 | 89 | 1006.4 |
| 20260903153318 | 20 | 97 | 4.8 | 8.0 | 0.00 | 0.00 | 0.00 | 89 | 1006.3 |
| 20260903152815 | 20 | 69 | 8.0 | 9.7 | 0.00 | 0.00 | 0.00 | 89 | 1006.2 |
| 20260903152310 | 19 | 88 | 6.4 | 8.0 | 0.00 | 0.00 | 0.00 | 90 | 1006.2 |
| 20260903151810 | 19 | 62 | 6.4 | 9.7 | 0.00 | 0.00 | 0.00 | 90 | 1006.2 |
| 20260903151305 | 19 | 105 | 8.0 | 8.0 | 0.00 | 0.00 | 0.00 | 90 | 1006.3 |
| 20260903150759 | 19 | 52 | 4.8 | 8.0 | 0.00 | 0.00 | 0.00 | 90 | 1006.4 |
| 20260903150253 | 19 | 74 | 9.7 | 14.5 | 0.00 | 0.00 | 0.00 | 90 | 1006.5 |
| 20260903145750 | 19 | 79 | 8.0 | 11.3 | 0.00 | 0.00 | 0.00 | 90 | 1006.7 |
| 20260903145245 | 18 | 68 | 6.4 | 11.3 | 0.00 | 0.00 | 0.00 | 90 | 1006.7 |
| 20260903144743 | 18 | 71 | 4.8 | 4.8 | 0.00 | 0.00 | 0.00 | 91 | 1006.8 |
| 20260903144239 | 18 | 50 | 12.9 | 14.5 | 0.00 | 0.00 | 0.00 | 90 | 1006.9 |
| 20260903143735 | 18 | 64 | 8.0 | 11.3 | 0.00 | 0.00 | 0.00 | 90 | 1007.0 |
| 20260903143231 | 18 | 53 | 4.8 | 9.7 | 0.00 | 0.00 | 0.00 | 90 | 1007.1 |
| 20260903142727 | 18 | 45 | 9.7 | 11.3 | 0.00 | 0.00 | 0.00 | 90 | 1007.1 |
| 20260903142223 | 18 | 28 | 8.0 | 11.3 | 0.00 | 0.00 | 0.00 | 90 | 1007.2 |
| 20260903141717 | 18 | 56 | 8.0 | 9.7 | 0.00 | 0.00 | 0.00 | 89 | 1007.5 |
| 20260903141213 | 18 | 32 | 4.8 | 4.8 | 0.00 | 0.00 | 0.00 | 89 | 1007.6 |
| 20260903140708 | 18 | 42 | 6.4 | 8.0 | 0.00 | 0.00 | 0.00 | 89 | 1007.8 |
| 20260903140203 | 18 | 62 | 4.8 | 4.8 | 0.00 | 0.00 | 0.00 | 89 | 1007.8 |
| 20260903135659 | 18 | 53 | 3.2 | 3.2 | 0.00 | 0.00 | 0.00 | 89 | 1007.8 |
| 20260903135154 | 18 | 47 | 4.8 | 4.8 | 0.00 | 0.00 | 0.00 | 89 | 1008.0 |
| 20260903134653 | 17 | 13 | 3.2 | 3.2 | 0.00 | 0.00 | 0.00 | 89 | 1008.0 |
| 20260903134149 | 17 | 45 | 3.2 | 3.2 | 0.00 | 0.00 | 0.00 | 89 | 1007.7 |
| 20260903133646 | 17 | 58 | 0.0 | 1.6 | 0.00 | 0.00 | 0.00 | 89 | 1007.6 |
| 20260903133142 | 17 | 86 | 3.2 | 3.2 | 0.00 | 0.00 | 0.00 | 89 | 1007.4 |
| 20260903132636 | 17 | 56 | 3.2 | 3.2 | 0.00 | 0.00 | 0.00 | 89 | 1007.1 |
| 20260903132131 | 17 | 96 | 1.6 | 1.6 | 0.00 | 0.00 | 0.00 | 89 | 1007.5 |
| 20260903131626 | 17 | 155 | 6.4 | 8.0 | 0.00 | 0.00 | 0.00 | 89 | 1007.0 |
| 20260903131125 | 17 | 102 | 9.7 | 12.9 | 0.00 | 0.00 | 0.00 | 89 | 1006.7 |
| 20260903130620 | 17 | 79 | 12.9 | 16.1 | 0.00 | 0.00 | 0.00 | 89 | 1006.6 |
| 20260903130114 | 17 | 74 | 16.1 | 17.7 | 0.00 | 0.00 | 0.00 | 89 | 1006.2 |
| 20260903125613 | 17 | 73 | 17.7 | 20.9 | 0.00 | 0.00 | 0.00 | 89 | 1006.2 |
| 20260903125103 | 17 | 56 | 14.5 | 17.7 | 0.00 | 0.00 | 0.00 | 89 | 1006.1 |
| 20260903124602 | 17 | 84 | 17.7 | 20.9 | 0.00 | 0.00 | 0.00 | 89 | 1006.1 |
| 20260903124057 | 17 | 70 | 14.5 | 17.7 | 0.00 | 0.00 | 0.00 | 89 | 1006.4 |
| 20260903123556 | 17 | 110 | 11.3 | 12.9 | 0.00 | 0.00 | 0.00 | 88 | 1006.2 |
| 20260903123054 | 17 | 96 | 12.9 | 16.1 | 0.00 | 0.00 | 0.00 | 89 | 1006.3 |
| 20260903122549 | 17 | 78 | 14.5 | 17.7 | 0.00 | 0.00 | 0.00 | 88 | 1006.1 |
| 20260903122048 | 17 | 95 | 11.3 | 12.9 | 0.00 | 0.00 | 0.00 | 88 | 1006.4 |
| 20260903121543 | 16 | 126 | 12.9 | 14.5 | 0.00 | 0.00 | 0.00 | 88 | 1006.4 |
| 20260903121039 | 16 | 100 | 11.3 | 16.1 | 0.00 | 0.00 | 0.00 | 88 | 1006.3 |
| 20260903120538 | 16 | 83 | 11.3 | 16.1 | 0.00 | 0.00 | 0.00 | 87 | 1006.3 |
| 20260903120033 | 16 | 114 | 8.0 | 9.7 | 0.00 | 0.00 | 0.00 | 87 | 1006.4 |
| 20260903115531 | 16 | 96 | 9.7 | 12.9 | 0.00 | 0.00 | 0.00 | 87 | 1006.4 |
| 20260903115026 | 16 | 102 | 9.7 | 12.9 | 0.00 | 0.00 | 0.00 | 86 | 1006.3 |
| 20260903114521 | 16 | 78 | 12.9 | 16.1 | 0.00 | 0.00 | 0.00 | 86 | 1006.5 |
| 20260903114017 | 16 | 75 | 9.7 | 12.9 | 0.00 | 0.00 | 0.00 | 86 | 1006.7 |
| 20260903113513 | 16 | 85 | 8.0 | 9.7 | 0.00 | 0.00 | 0.00 | 85 | 1006.8 |
| 20260903113009 | 16 | 87 | 6.4 | 9.7 | 0.00 | 0.00 | 0.00 | 85 | 1007.0 |
| 20260903112503 | 16 | 57 | 6.4 | 8.0 | 0.00 | 0.00 | 0.00 | 85 | 1007.0 |
| 20260903112003 | 16 | 83 | 6.4 | 9.7 | 0.00 | 0.00 | 0.00 | 84 | 1006.8 |
| 20260903111457 | 16 | 86 | 4.8 | 4.8 | 0.00 | 0.00 | 0.00 | 84 | 1006.8 |
| 20260903110954 | 16 | 93 | 4.8 | 4.8 | 0.00 | 0.00 | 0.00 | 84 | 1006.8 |
| 20260903110449 | 16 | 105 | 8.0 | 9.7 | 0.00 | 0.00 | 0.00 | 84 | 1006.5 |
| 20260903105943 | 16 | 66 | 11.3 | 14.5 | 0.00 | 0.00 | 0.00 | 83 | 1006.2 |
| 20260903105439 | 16 | 92 | 8.0 | 9.7 | 0.00 | 0.00 | 0.00 | 83 | 1006.4 |
| 20260903104938 | 16 | 134 | 9.7 | 12.9 | 0.00 | 0.00 | 0.00 | 82 | 1006.5 |
| 20260903104438 | 17 | 108 | 8.0 | 11.3 | 0.00 | 0.00 | 0.00 | 82 | 1006.6 |
| 20260903103935 | 17 | 83 | 14.5 | 16.1 | 0.00 | 0.00 | 0.00 | 82 | 1006.4 |
| 20260903103430 | 16 | 79 | 8.0 | 11.3 | 0.00 | 0.00 | 0.00 | 82 | 1006.7 |
| 20260903102926 | 17 | 98 | 11.3 | 12.9 | 0.00 | 0.00 | 0.00 | 81 | 1006.7 |
| 20260903102421 | 17 | 114 | 11.3 | 12.9 | 0.00 | 0.00 | 0.00 | 80 | 1006.8 |
| 20260903101920 | 17 | 80 | 6.4 | 11.3 | 0.00 | 0.00 | 0.00 | 80 | 1006.7 |
| 20260903101415 | 17 | 73 | 14.5 | 16.1 | 0.00 | 0.00 | 0.00 | 80 | 1006.7 |
| 20260903100910 | 17 | 91 | 9.7 | 12.9 | 0.00 | 0.00 | 0.00 | 80 | 1006.5 |
| 20260903100406 | 17 | 73 | 14.5 | 20.9 | 0.00 | 0.00 | 0.00 | 79 | 1006.7 |
| 20260903095902 | 17 | 90 | 12.9 | 17.7 | 0.00 | 0.00 | 0.00 | 78 | 1006.6 |
| 20260903095356 | 17 | 99 | 9.7 | 11.3 | 0.00 | 0.00 | 0.00 | 78 | 1006.7 |
| 20260903094851 | 17 | 96 | 12.9 | 14.5 | 0.00 | 0.00 | 0.00 | 77 | 1006.9 |
| 20260903094346 | 17 | 82 | 16.1 | 20.9 | 0.00 | 0.00 | 0.00 | 77 | 1006.9 |
| 20260903093842 | 17 | 134 | 8.0 | 8.0 | 0.00 | 0.00 | 0.00 | 77 | 1007.0 |
| 20260903093337 | 17 | 77 | 9.7 | 9.7 | 0.00 | 0.00 | 0.00 | 77 | 1006.9 |
| 20260903092832 | 17 | 120 | 17.7 | 24.1 | 0.00 | 0.00 | 0.00 | 77 | 1007.0 |
| 20260903092327 | 17 | 102 | 16.1 | 17.7 | 0.00 | 0.00 | 0.00 | 76 | 1006.8 |
| 20260903091825 | 17 | 77 | 17.7 | 22.5 | 0.00 | 0.00 | 0.00 | 76 | 1006.9 |
| 20260903091319 | 17 | 60 | 16.1 | 22.5 | 0.00 | 0.00 | 0.00 | 76 | 1006.9 |
| 20260903090815 | 17 | 57 | 11.3 | 16.1 | 0.00 | 0.00 | 0.00 | 76 | 1006.7 |
| 20260903090315 | 17 | 128 | 17.7 | 24.1 | 0.00 | 0.00 | 0.00 | 76 | 1007.0 |
| 20260903085813 | 17 | 111 | 17.7 | 24.1 | 0.00 | 0.00 | 0.00 | 75 | 1007.0 |
| 20260903085308 | 17 | 70 | 17.7 | 22.5 | 0.00 | 0.00 | 0.00 | 75 | 1007.2 |
| 20260903084806 | 17 | 88 | 12.9 | 16.1 | 0.00 | 0.00 | 0.00 | 75 | 1007.5 |
| 20260903084300 | 17 | 105 | 14.5 | 17.7 | 0.00 | 0.00 | 0.00 | 75 | 1007.4 |
| 20260903083755 | 17 | 83 | 17.7 | 22.5 | 0.00 | 0.00 | 0.00 | 75 | 1007.2 |
| 20260903083250 | 17 | 93 | 12.9 | 14.5 | 0.00 | 0.00 | 0.00 | 74 | 1007.6 |
| 20260903082749 | 18 | 95 | 9.7 | 14.5 | 0.00 | 0.00 | 0.00 | 74 | 1007.7 |
| 20260903082245 | 18 | 73 | 11.3 | 14.5 | 0.00 | 0.00 | 0.00 | 73 | 1007.7 |
| 20260903081745 | 18 | 90 | 14.5 | 17.7 | 0.00 | 0.00 | 0.00 | 72 | 1007.7 |
| 20260903081241 | 18 | 103 | 12.9 | 14.5 | 0.00 | 0.00 | 0.00 | 72 | 1007.8 |
| 20260903080737 | 18 | 79 | 19.3 | 24.1 | 0.00 | 0.00 | 0.00 | 72 | 1007.8 |
| 20260903080235 | 18 | 73 | 11.3 | 14.5 | 0.00 | 0.00 | 0.00 | 71 | 1007.7 |
| 20260903075734 | 18 | 78 | 22.5 | 27.4 | 0.00 | 0.00 | 0.00 | 70 | 1007.7 |
| 20260903075229 | 18 | 89 | 16.1 | 22.5 | 0.00 | 0.00 | 0.00 | 70 | 1008.3 |
| 20260903074728 | 18 | 93 | 11.3 | 14.5 | 0.00 | 0.00 | 0.00 | 70 | 1008.3 |
| 20260903074223 | 18 | 81 | 19.3 | 24.1 | 0.00 | 0.00 | 0.00 | 70 | 1008.7 |
| 20260903073718 | 19 | 50 | 11.3 | 14.5 | 0.00 | 0.00 | 0.00 | 70 | 1008.5 |
| 20260903073214 | 19 | 66 | 14.5 | 20.9 | 0.00 | 0.00 | 0.00 | 69 | 1008.7 |
| 20260903072709 | 19 | 82 | 12.9 | 14.5 | 0.00 | 0.00 | 0.00 | 68 | 1008.4 |
| 20260903072206 | 20 | 78 | 12.9 | 17.7 | 0.00 | 0.00 | 0.00 | 68 | 1008.7 |
| 20260903071702 | 20 | 74 | 12.9 | 20.9 | 0.00 | 0.00 | 0.00 | 68 | 1008.9 |
| 20260903071157 | 20 | 80 | 8.0 | 9.7 | 0.00 | 0.00 | 0.00 | 67 | 1009.0 |
| 20260903070657 | 20 | 82 | 12.9 | 16.1 | 0.00 | 0.00 | 0.00 | 67 | 1009.0 |
| 20260903070153 | 20 | 75 | 12.9 | 16.1 | 0.00 | 0.00 | 0.00 | 67 | 1009.2 |
| 20260903065647 | 20 | 105 | 14.5 | 16.1 | 0.00 | 0.00 | 0.00 | 66 | 1009.3 |
| 20260903065147 | 20 | 93 | 19.3 | 25.7 | 0.00 | 0.00 | 0.00 | 67 | 1009.4 |
| 20260903064646 | 20 | 85 | 11.3 | 16.1 | 0.00 | 0.00 | 0.00 | 67 | 1009.3 |
| 20260903064142 | 20 | 87 | 16.1 | 17.7 | 0.00 | 0.00 | 0.00 | 68 | 1009.5 |
| 20260903063638 | 20 | 74 | 11.3 | 14.5 | 0.00 | 0.00 | 0.00 | 68 | 1009.6 |
| 20260903063138 | 19 | 73 | 11.3 | 12.9 | 0.00 | 0.00 | 0.00 | 69 | 1009.5 |
| 20260903062634 | 19 | 117 | 11.3 | 14.5 | 0.00 | 0.00 | 0.00 | 70 | 1009.7 |
| 20260903062129 | 19 | 70 | 12.9 | 16.1 | 0.00 | 0.00 | 0.00 | 70 | 1009.7 |
| 20260903061624 | 19 | 91 | 11.3 | 12.9 | 0.00 | 0.00 | 0.00 | 70 | 1009.8 |
| 20260903061123 | 20 | 131 | 11.3 | 12.9 | 0.00 | 0.00 | 0.00 | 69 | 1009.6 |
| 20260903060618 | 20 | 84 | 11.3 | 12.9 | 0.00 | 0.00 | 0.00 | 69 | 1009.6 |
| 20260903060114 | 20 | 81 | 12.9 | 16.1 | 0.00 | 0.00 | 0.00 | 69 | 1009.8 |
| 20260903055611 | 20 | 81 | 11.3 | 12.9 | 0.00 | 0.00 | 0.00 | 69 | 1010.1 |
| 20260903055109 | 20 | 93 | 11.3 | 14.5 | 0.00 | 0.00 | 0.00 | 69 | 1010.1 |
| 20260903054604 | 20 | 87 | 11.3 | 12.9 | 0.00 | 0.00 | 0.00 | 68 | 1010.0 |
| 20260903054101 | 20 | 104 | 11.3 | 14.5 | 0.00 | 0.00 | 0.00 | 68 | 1009.8 |
| 20260903053556 | 20 | 104 | 14.5 | 17.7 | 0.00 | 0.00 | 0.00 | 68 | 1009.9 |
| 20260903053052 | 20 | 113 | 12.9 | 14.5 | 0.00 | 0.00 | 0.00 | 68 | 1009.9 |
| 20260903052548 | 20 | 59 | 12.9 | 14.5 | 0.00 | 0.00 | 0.00 | 68 | 1010.0 |
| 20260903052043 | 20 | 113 | 9.7 | 11.3 | 0.00 | 0.00 | 0.00 | 69 | 1010.2 |
| 20260903051542 | 20 | 104 | 12.9 | 16.1 | 0.00 | 0.00 | 0.00 | 69 | 1010.2 |
| 20260903051038 | 20 | 63 | 11.3 | 16.1 | 0.00 | 0.00 | 0.00 | 70 | 1010.2 |
| 20260903050537 | 20 | 83 | 14.5 | 14.5 | 0.00 | 0.00 | 0.00 | 71 | 1010.2 |
| 20260903050033 | 20 | 80 | 9.7 | 11.3 | 0.00 | 0.00 | 0.00 | 71 | 1010.4 |
| 20260903045532 | 20 | 94 | 14.5 | 17.7 | 0.00 | 0.00 | 0.00 | 72 | 1010.3 |
| 20260903045029 | 19 | 64 | 11.3 | 14.5 | 0.00 | 0.00 | 0.00 | 72 | 1010.3 |
| 20260903044525 | 20 | 57 | 12.9 | 16.1 | 0.00 | 0.00 | 0.00 | 72 | 1010.2 |
| 20260903044020 | 20 | 76 | 12.9 | 14.5 | 0.00 | 0.00 | 0.00 | 71 | 1010.3 |
| 20260903043516 | 20 | 103 | 17.7 | 20.9 | 0.00 | 0.00 | 0.00 | 70 | 1010.0 |
| 20260903043015 | 20 | 57 | 12.9 | 16.1 | 0.00 | 0.00 | 0.00 | 70 | 1010.2 |
| 20260903042510 | 20 | 84 | 11.3 | 14.5 | 0.00 | 0.00 | 0.00 | 70 | 1010.3 |
| 20260903042006 | 20 | 59 | 12.9 | 17.7 | 0.00 | 0.00 | 0.00 | 71 | 1010.5 |
| 20260903041502 | 19 | 58 | 12.9 | 16.1 | 0.00 | 0.00 | 0.00 | 71 | 1010.3 |
| 20260903040957 | 19 | 75 | 11.3 | 16.1 | 0.00 | 0.00 | 0.00 | 71 | 1010.4 |
| 20260903040456 | 19 | 58 | 8.0 | 9.7 | 0.00 | 0.00 | 0.00 | 71 | 1010.5 |
| 20260903035953 | 19 | 71 | 12.9 | 14.5 | 0.00 | 0.00 | 0.00 | 71 | 1010.5 |
| 20260903035448 | 19 | 67 | 16.1 | 20.9 | 0.00 | 0.00 | 0.00 | 71 | 1010.4 |
| 20260903034943 | 20 | 94 | 14.5 | 20.9 | 0.00 | 0.00 | 0.00 | 71 | 1010.7 |
| 20260903034438 | 20 | 72 | 12.9 | 16.1 | 0.00 | 0.00 | 0.00 | 70 | 1010.5 |
| 20260903033933 | 20 | 75 | 9.7 | 12.9 | 0.00 | 0.00 | 0.00 | 70 | 1010.6 |
| 20260903033428 | 20 | 54 | 11.3 | 12.9 | 0.00 | 0.00 | 0.00 | 69 | 1010.7 |
| 20260903032923 | 20 | 62 | 11.3 | 14.5 | 0.00 | 0.00 | 0.00 | 70 | 1010.7 |
| 20260903032419 | 20 | 62 | 12.9 | 12.9 | 0.00 | 0.00 | 0.00 | 69 | 1010.9 |
| 20260903031914 | 20 | 70 | 12.9 | 17.7 | 0.00 | 0.00 | 0.00 | 68 | 1010.7 |
| 20260903031413 | 20 | 76 | 14.5 | 16.1 | 0.00 | 0.00 | 0.00 | 68 | 1010.9 |
| 20260903030908 | 20 | 90 | 11.3 | 14.5 | 0.00 | 0.00 | 0.00 | 67 | 1010.7 |
| 20260903030405 | 20 | 93 | 8.0 | 9.7 | 0.00 | 0.00 | 0.00 | 67 | 1010.8 |
| 20260903025901 | 20 | 70 | 12.9 | 14.5 | 0.00 | 0.00 | 0.00 | 67 | 1010.7 |
| 20260903025356 | 20 | 79 | 9.7 | 12.9 | 0.00 | 0.00 | 0.00 | 67 | 1010.9 |
| 20260903024855 | 20 | 84 | 9.7 | 11.3 | 0.00 | 0.00 | 0.00 | 67 | 1010.8 |
| 20260903024350 | 21 | 71 | 9.7 | 12.9 | 0.00 | 0.00 | 0.00 | 66 | 1010.9 |
| 20260903023845 | 21 | 55 | 9.7 | 11.3 | 0.00 | 0.00 | 0.00 | 65 | 1010.9 |
| 20260903023341 | 21 | 56 | 9.7 | 14.5 | 0.00 | 0.00 | 0.00 | 64 | 1011.2 |
| 20260903022836 | 21 | 68 | 8.0 | 9.7 | 0.00 | 0.00 | 0.00 | 63 | 1011.2 |
| 20260903022335 | 21 | 59 | 9.7 | 12.9 | 0.00 | 0.00 | 0.00 | 63 | 1010.8 |
| 20260903021834 | 21 | 57 | 9.7 | 11.3 | 0.00 | 0.00 | 0.00 | 63 | 1010.7 |
| 20260903021330 | 22 | 64 | 8.0 | 11.3 | 0.00 | 0.00 | 0.00 | 63 | 1010.9 |
| 20260903020830 | 22 | 73 | 11.3 | 12.9 | 0.00 | 0.00 | 0.00 | 61 | 1010.5 |
| 20260903020325 | 22 | 76 | 8.0 | 9.7 | 0.00 | 0.00 | 0.00 | 62 | 1010.6 |
| 20260903015820 | 22 | 65 | 9.7 | 11.3 | 0.00 | 0.00 | 0.00 | 62 | 1010.7 |
| 20260903015315 | 22 | 68 | 11.3 | 14.5 | 0.00 | 0.00 | 0.00 | 61 | 1010.3 |
| 20260903014810 | 22 | 74 | 8.0 | 12.9 | 0.00 | 0.00 | 0.00 | 61 | 1010.4 |
| 20260903014309 | 22 | 78 | 9.7 | 11.3 | 0.00 | 0.00 | 0.00 | 61 | 1010.4 |
| 20260903013805 | 22 | 79 | 8.0 | 9.7 | 0.00 | 0.00 | 0.00 | 61 | 1010.4 |
| 20260903013304 | 22 | 69 | 9.7 | 12.9 | 0.00 | 0.00 | 0.00 | 60 | 1010.6 |
| 20260903012803 | 22 | 70 | 9.7 | 12.9 | 0.00 | 0.00 | 0.00 | 60 | 1010.4 |
| 20260903012258 | 22 | 79 | 11.3 | 12.9 | 0.00 | 0.00 | 0.00 | 59 | 1010.5 |
| 20260903011757 | 23 | 68 | 12.9 | 14.5 | 0.00 | 0.00 | 0.00 | 58 | 1010.5 |
| 20260903011256 | 23 | 58 | 9.7 | 11.3 | 0.00 | 0.00 | 0.00 | 58 | 1010.7 |
| 20260903010752 | 23 | 83 | 8.0 | 9.7 | 0.00 | 0.00 | 0.00 | 57 | 1010.4 |
| 20260903010247 | 24 | 66 | 12.9 | 14.5 | 0.00 | 0.00 | 0.00 | 56 | 1010.5 |
| 20260903005746 | 24 | 77 | 8.0 | 9.7 | 0.00 | 0.00 | 0.00 | 55 | 1010.6 |
| 20260903005241 | 25 | 61 | 11.3 | 20.9 | 0.00 | 0.00 | 0.00 | 54 | 1010.7 |
| 20260903004736 | 25 | 85 | 11.3 | 14.5 | 0.00 | 0.00 | 0.00 | 54 | 1010.5 |
| 20260903004232 | 25 | 116 | 11.3 | 14.5 | 0.00 | 0.00 | 0.00 | 53 | 1010.6 |
| 20260903003727 | 25 | 68 | 20.9 | 25.7 | 0.00 | 0.00 | 0.00 | 53 | 1010.7 |
| 20260903003222 | 25 | 111 | 11.3 | 12.9 | 0.00 | 0.00 | 0.00 | 54 | 1010.6 |
| 20260903002711 | 25 | 97 | 11.3 | 14.5 | 0.00 | 0.00 | 0.00 | 53 | 1010.7 |
| 20260903002205 | 25 | 112 | 16.1 | 17.7 | 0.00 | 0.00 | 0.00 | 54 | 1010.8 |
| 20260903001700 | 25 | 106 | 14.5 | 16.1 | 0.00 | 0.00 | 0.00 | 54 | 1010.9 |
| 20260903001154 | 26 | 83 | 17.7 | 24.1 | 0.00 | 0.00 | 0.00 | 53 | 1010.8 |
| 20260903000650 | 26 | 86 | 12.9 | 16.1 | 0.00 | 0.00 | 0.00 | 53 | 1010.9 |
| 20260903000149 | 25 | 72 | 9.7 | 11.3 | 0.00 | 0.00 | 0.00 | 52 | 1010.8 |
| 20260902235648 | 25 | 71 | 12.9 | 17.7 | 0.00 | 0.00 | 0.00 | 52 | 1010.9 |
| 20260902235144 | 25 | 68 | 14.5 | 17.7 | 0.00 | 0.00 | 0.00 | 52 | 1010.9 |
| 20260902234637 | 25 | 67 | 17.7 | 24.1 | 0.00 | 0.00 | 0.00 | 53 | 1011.1 |
| 20260902234136 | 26 | 97 | 12.9 | 14.5 | 0.00 | 0.00 | 0.00 | 54 | 1011.1 |
| 20260902233632 | 26 | 62 | 11.3 | 12.9 | 0.00 | 0.00 | 0.00 | 55 | 1010.9 |
| 20260902233126 | 26 | 99 | 16.1 | 20.9 | 0.00 | 0.00 | 0.00 | 54 | 1010.9 |
| 20260902232625 | 26 | 101 | 20.9 | 27.4 | 0.00 | 0.00 | 0.00 | 53 | 1010.9 |
| 20260902232125 | 26 | 141 | 9.7 | 11.3 | 0.00 | 0.00 | 0.00 | 52 | 1010.9 |
| 20260902231624 | 26 | 60 | 11.3 | 16.1 | 0.00 | 0.00 | 0.00 | 52 | 1010.7 |
| 20260902231124 | 26 | 91 | 14.5 | 17.7 | 0.00 | 0.00 | 0.00 | 52 | 1010.8 |
| 20260902230620 | 26 | 75 | 12.9 | 14.5 | 0.00 | 0.00 | 0.00 | 53 | 1010.9 |
| 20260902230118 | 27 | 90 | 16.1 | 22.5 | 0.00 | 0.00 | 0.00 | 52 | 1011.1 |
| 20260902225614 | 27 | 143 | 20.9 | 22.5 | 0.00 | 0.00 | 0.00 | 52 | 1010.8 |
| 20260902225113 | 27 | 92 | 11.3 | 16.1 | 0.00 | 0.00 | 0.00 | 53 | 1011.1 |
| 20260902224612 | 27 | 81 | 20.9 | 29.0 | 0.00 | 0.00 | 0.00 | 51 | 1010.9 |
| 20260902224108 | 27 | 87 | 14.5 | 16.1 | 0.00 | 0.00 | 0.00 | 52 | 1010.9 |
| 20260902223604 | 27 | 80 | 20.9 | 27.4 | 0.00 | 0.00 | 0.00 | 51 | 1010.9 |
| 20260902223103 | 27 | 140 | 11.3 | 12.9 | 0.00 | 0.00 | 0.00 | 52 | 1010.8 |
| 20260902222601 | 26 | 94 | 14.5 | 16.1 | 0.00 | 0.00 | 0.00 | 54 | 1010.9 |
| 20260902222100 | 26 | 103 | 6.4 | 11.3 | 0.00 | 0.00 | 0.00 | 54 | 1010.9 |
| 20260902221555 | 27 | 102 | 9.7 | 14.5 | 0.00 | 0.00 | 0.00 | 53 | 1010.9 |
| 20260902221050 | 27 | 47 | 14.5 | 17.7 | 0.00 | 0.00 | 0.00 | 51 | 1011.3 |
| 20260902220545 | 27 | 87 | 14.5 | 14.5 | 0.00 | 0.00 | 0.00 | 50 | 1010.9 |
| 20260902220040 | 27 | 101 | 11.3 | 12.9 | 0.00 | 0.00 | 0.00 | 51 | 1011.1 |
| 20260902215537 | 27 | 78 | 12.9 | 17.7 | 0.00 | 0.00 | 0.00 | 51 | 1010.9 |
| 20260902215032 | 27 | 78 | 14.5 | 17.7 | 0.00 | 0.00 | 0.00 | 51 | 1011.1 |
| 20260902214531 | 27 | 108 | 14.5 | 17.7 | 0.00 | 0.00 | 0.00 | 53 | 1011.1 |
| 20260902214031 | 27 | 122 | 14.5 | 17.7 | 0.00 | 0.00 | 0.00 | 53 | 1011.1 |
| 20260902213527 | 27 | 124 | 9.7 | 11.3 | 0.00 | 0.00 | 0.00 | 53 | 1011.3 |